Theta_e
327 330 330 330 329 329 327 319 315 315 315 316 318 318 317 318 318 319 321 325 327 328 327 327 326 325 324 323 322 321 320 320 320 319 319 318 318 318 317 316 316 315 314
328 328 328 328 326 326 324 318 314 313 315 316 315 316 316 317 317 317 319 322 324 326 327 326 326 325 324 323 322 321 320 320 320 319 318 318 318 317 316 315 315 314 314
328 328 329 327 324 322 319 315 311 311 314 314 314 314 315 316 317 317 318 319 321 323 325 327 326 324 324 323 322 321 320 320 319 319 318 318 317 317 316 315 315 314 313
329 328 328 325 322 319 317 315 312 310 312 313 312 313 314 315 316 316 316 317 317 319 322 324 325 325 324 323 322 322 321 320 320 319 319 318 318 317 317 316 315 314 314
329 328 328 324 318 316 316 314 311 312 312 312 313 312 312 314 315 316 315 316 316 317 317 322 323 323 324 323 323 323 322 321 320 320 320 320 319 319 318 316 316 315 315
327 328 325 319 318 314 313 314 311 311 311 313 314 311 311 312 313 314 315 316 316 316 316 317 319 319 322 325 324 323 324 323 322 322 321 321 321 320 320 319 318 317 316
326 325 320 318 316 313 312 312 312 311 309 311 309 308 308 312 311 312 313 314 315 315 314 315 316 316 317 323 325 324 325 325 325 325 324 323 323 323 323 323 321 319 318
324 322 320 318 315 312 310 311 312 309 309 312 308 306 304 307 310 311 312 313 313 314 314 314 314 315 315 315 318 323 324 325 326 326 327 327 326 325 324 323 324 323 321
323 321 319 317 315 311 310 311 312 312 309 308 313 308 302 303 305 306 309 312 312 312 314 314 314 314 314 314 315 317 317 320 323 324 327 327 327 327 326 326 325 325 324
324 321 319 318 315 311 310 311 313 313 311 308 308 308 308 306 304 301 306 309 311 311 312 312 314 314 314 315 314 313 311 312 316 322 324 326 326 326 327 327 326 326 325
325 322 320 318 315 314 311 312 314 314 312 312 309 308 308 308 306 303 301 304 305 310 313 313 313 313 314 314 314 313 310 309 310 316 320 323 325 325 325 326 326 326 326
326 325 321 319 317 315 313 313 316 314 313 314 311 309 308 307 307 305 303 303 304 306 308 311 312 313 313 313 314 312 310 308 308 312 315 318 320 322 324 325 325 325 325
324 324 324 321 319 317 318 315 317 315 313 312 311 310 311 310 310 309 308 305 305 308 308 309 308 310 312 312 313 311 311 307 307 309 311 313 315 316 318 318 319 320 320
324 325 325 323 321 319 320 318 317 316 314 313 313 313 313 312 312 310 309 307 305 305 306 308 310 309 309 310 311 308 311 305 304 304 306 307 309 309 310 310 311 312 313
322 324 325 325 323 322 320 319 317 316 315 314 314 315 314 314 314 314 312 310 307 303 305 309 309 311 311 310 309 310 310 300 300 300 300 301 302 302 302 302 302 303 304
322 322 322 324 324 322 320 319 317 317 316 315 316 315 315 315 315 314 313 313 311 309 307 311 312 311 308 309 303 303 302 299 297 296 296 296 296 297 297 297 298 298 299
321 321 321 322 321 320 320 319 318 318 316 316 316 315 315 316 315 315 315 314 313 313 309 312 313 304 298 299 296 298 296 296 295 293 292 292 292 293 293 293 292 292 293
319 320 320 320 320 320 320 319 317 317 316 315 315 315 314 314 314 314 313 313 313 313 312 309 303 296 291 294 292 292 292 291 294 291 291 289 290 291 290 290 289 288 290
317 318 318 318 318 319 319 318 318 317 316 315 315 314 313 313 311 307 307 307 304 302 301 302 293 292 290 288 289 288 287 287 291 289 288 286 288 289 287 286 286 285 285
316 316 317 317 317 317 317 317 316 315 309 302 299 298 297 300 300 299 297 296 297 294 294 293 289 287 286 286 285 282 283 284 285 284 284 283 285 285 283 282 282 283 283
316 316 316 316 316 316 316 316 313 303 295 292 291 291 291 292 291 292 291 291 291 289 288 286 284 283 281 281 279 280 279 280 282 280 279 280 281 281 280 279 280 281 283
315 314 311 309 305 303 297 299 301 297 293 290 288 287 288 288 287 287 286 286 287 286 283 282 281 277 276 277 278 276 275 275 274 280 276 276 279 277 277 276 279 280 282
303 300 298 298 295 296 294 294 293 293 290 288 287 286 285 286 285 285 284 283 283 282 281 280 277 276 274 275 276 274 273 273 273 275 273 273 275 273 275 275 277 280 280
294 292 290 290 289 290 291 290 289 288 287 286 286 285 284 283 284 283 281 279 278 278 279 279 277 276 275 274 274 273 272 271 273 275 272 268 272 271 273 274 277 279 278
289 288 288 287 286 286 288 287 286 284 283 283 284 284 283 282 284 284 279 277 276 277 279 279 278 277 276 275 274 272 269 268 267 270 271 269 270 270 271 273 275 276 276
287 286 285 286 286 285 287 286 285 284 282 281 281 281 282 281 281 280 278 276 274 274 274 273 273 273 273 273 273 271 270 267 266 265 270 268 268 268 266 271 272 272 272
Wind_Speed
10 9 7 8 8 10 11 7 6 6 7 7 5 10 8 6 6 3 2 10 11 14 15 15 14 14 13 12 12 13 11 10 10 10 9 8 7 7 7 6 5 5 5
10 9 7 8 8 9 10 9 7 7 7 7 6 6 7 6 5 5 3 4 10 11 12 14 13 13 13 12 11 11 11 10 9 8 8 7 7 7 6 6 6 6 6
13 13 10 9 8 8 10 9 6 5 7 5 6 7 5 7 6 6 4 3 5 7 8 10 12 12 12 11 10 10 10 9 8 8 8 8 8 9 8 8 8 8 9
17 14 11 9 9 8 10 10 8 5 5 7 4 5 4 5 6 5 4 4 3 3 5 8 9 10 11 11 11 10 10 8 8 9 9 9 10 9 9 10 11 10 12
15 17 13 10 12 8 10 11 7 8 7 5 6 4 4 5 6 5 5 5 5 4 3 6 8 8 8 10 11 11 11 10 10 10 10 11 12 13 13 13 13 13 14
9 17 13 13 12 10 9 9 11 4 5 7 7 4 3 3 3 4 5 4 4 5 4 5 4 4 9 9 11 11 10 11 11 12 14 14 16 15 15 16 15 16 17
17 14 13 13 11 12 12 13 10 12 3 5 7 3 4 2 3 2 3 2 4 4 4 4 4 3 3 10 11 14 14 14 14 16 16 17 16 17 16 17 18 19 19
13 13 15 13 12 10 11 13 12 6 3 8 5 3 3 1 1 3 3 4 5 3 5 7 6 5 5 4 6 13 17 17 18 19 18 17 17 18 19 18 19 21 22
10 11 12 12 12 10 10 13 13 14 8 4 11 6 4 4 3 1 5 4 5 4 5 6 6 6 6 5 7 9 14 15 20 22 20 18 17 18 19 21 22 23 24
12 11 11 11 11 9 11 11 10 11 7 9 1 2 3 6 4 2 2 4 4 6 7 5 6 7 7 6 10 13 14 15 18 22 24 23 22 20 20 22 23 24 25
12 12 12 11 11 9 10 13 11 7 6 10 5 3 3 3 3 4 3 2 2 4 6 7 6 6 8 8 8 10 16 17 18 20 22 24 25 24 23 24 24 24 26
10 14 13 12 11 10 11 11 11 10 7 9 4 4 4 4 3 3 3 2 2 3 4 5 6 6 4 6 9 14 14 16 18 20 22 23 23 23 23 23 24 25 25
6 11 14 15 12 13 11 12 11 10 9 8 7 5 3 3 4 2 4 1 3 2 2 3 4 4 4 4 8 12 15 14 14 16 17 16 18 18 19 21 22 23 24
8 10 14 14 15 16 13 13 10 9 9 7 9 5 5 3 4 2 5 4 1 3 1 4 2 3 3 5 11 8 7 8 8 8 7 8 9 11 12 12 12 15 16
6 8 14 15 17 16 16 16 10 11 10 7 8 5 4 6 2 4 3 4 3 2 3 3 4 5 6 3 4 3 6 19 17 16 16 17 17 16 16 15 14 14 15
9 11 13 14 16 19 19 16 12 13 14 10 8 10 7 3 4 3 3 4 4 3 4 4 3 1 6 7 11 11 11 17 21 20 19 20 19 18 18 17 17 18 18
8 11 15 15 15 19 19 18 17 17 17 15 14 14 12 8 6 6 5 5 5 5 6 5 2 6 7 9 8 8 9 8 9 18 18 18 18 18 18 17 19 19 19
5 7 8 11 12 15 18 19 18 17 17 16 13 11 11 7 9 7 5 7 6 6 7 11 3 4 8 5 7 8 8 7 6 14 17 19 17 16 17 17 18 20 20
4 5 6 7 9 10 14 17 15 16 15 13 11 10 8 9 7 4 3 3 2 2 2 1 4 3 4 6 4 5 6 7 5 12 14 18 16 15 17 18 17 19 20
6 6 6 7 7 9 11 12 14 11 10 10 9 8 5 4 6 6 5 4 4 5 3 4 4 3 4 4 3 5 5 5 5 7 10 13 12 13 16 18 17 20 21
7 6 6 6 7 6 5 9 12 13 14 13 12 11 9 12 15 10 5 5 6 6 6 6 5 3 4 5 7 5 4 5 2 6 7 7 5 6 7 12 14 20 19
7 7 6 7 7 4 8 15 15 13 13 14 15 14 14 20 23 25 25 23 12 8 8 5 7 7 7 6 5 6 6 5 5 6 8 8 5 7 8 10 22 20 17
8 8 8 8 7 5 14 20 21 12 13 12 13 13 13 11 16 17 24 27 26 27 16 10 11 6 7 6 5 5 6 4 4 5 7 5 5 7 9 11 18 17 17
9 8 9 9 10 9 14 24 24 16 14 14 13 13 13 12 12 15 16 17 16 15 13 11 12 11 9 8 7 4 5 4 4 3 9 3 7 9 9 9 14 14 20
9 9 9 11 13 12 15 19 23 16 17 16 14 13 13 14 19 21 16 17 16 14 18 22 21 20 19 19 13 5 8 7 4 3 7 8 6 10 7 6 4 18 26
12 10 13 12 16 14 17 18 19 14 18 14 15 16 24 17 22 20 13 12 12 10 10 10 10 13 12 14 16 11 7 7 5 4 5 8 9 10 7 5 8 10 11
Wind_Direction
181 179 170 161 162 163 148 137 137 133 130 132 137 128 154 144 131 116 125 148 145 152 156 154 155 154 153 152 151 146 154 157 156 151 144 142 146 138 139 152 150 167 178
182 181 164 157 157 163 147 144 147 138 140 137 127 142 141 130 133 135 141 147 147 158 158 160 163 161 159 162 161 161 167 169 164 163 162 170 174 166 173 189 185 212 217
188 174 173 160 162 147 136 128 125 123 133 132 151 113 150 144 145 139 142 142 147 149 157 167 168 167 164 174 173 181 177 176 177 184 188 195 206 206 198 212 221 226 234
184 177 167 163 150 157 144 147 150 133 133 141 149 135 149 138 127 143 145 140 143 144 162 170 175 169 178 184 187 193 194 194 200 205 208 219 222 222 220 230 238 238 244
196 180 177 157 150 152 149 151 152 153 146 137 151 138 148 140 150 153 154 156 164 152 160 188 177 180 191 199 204 208 208 207 215 226 229 230 234 232 229 239 241 243 249
199 172 156 147 150 152 151 153 156 123 132 155 126 102 86 95 138 152 158 164 180 157 188 191 186 193 201 211 222 228 229 227 233 238 240 240 241 240 242 239 242 245 249
211 159 143 147 151 160 158 154 159 148 97 132 103 80 55 82 118 144 130 162 188 178 193 207 192 192 213 227 231 238 244 248 248 245 243 246 240 243 241 240 243 246 246
141 143 145 151 156 152 155 157 159 136 118 164 144 114 138 48 272 187 170 189 204 181 206 217 204 200 204 211 229 242 248 253 257 258 255 248 241 241 239 242 240 241 242
133 133 142 153 161 157 163 164 165 173 151 204 177 138 138 184 132 166 210 206 185 203 230 219 208 210 209 211 228 240 242 246 254 261 266 265 258 252 248 243 243 243 243
147 147 151 156 161 162 169 168 172 174 143 173 162 51 88 137 153 169 237 211 193 210 217 221 216 216 217 220 223 226 233 235 242 250 258 261 262 262 262 258 251 248 247
167 161 161 161 168 169 174 168 168 170 165 172 159 146 113 72 76 139 169 182 245 217 220 220 216 219 220 223 228 232 234 237 239 244 249 255 258 260 260 262 263 263 259
165 169 171 172 174 175 175 172 172 168 161 172 149 140 148 151 166 161 126 129 188 236 214 209 215 225 220 229 241 237 235 237 240 244 249 255 259 264 267 272 277 277 277
181 178 176 180 180 178 173 170 167 162 156 163 161 155 137 144 136 109 85 52 114 21 270 186 203 225 212 221 244 238 246 249 248 248 259 272 272 275 282 283 288 291 296
190 186 195 183 183 178 170 172 168 165 150 148 144 139 136 106 86 138 134 135 90 219 355 247 298 244 264 255 255 254 264 330 328 327 317 312 320 325 322 317 324 316 321
205 193 203 194 184 180 171 169 168 158 146 144 150 157 152 136 145 123 105 92 136 222 249 223 236 188 216 229 340 327 54 65 52 42 41 44 45 43 38 24 20 15 7
208 207 206 212 182 178 172 170 164 157 151 156 163 172 182 142 147 118 181 162 186 196 249 212 236 202 24 72 42 58 66 67 57 58 50 42 36 38 39 32 25 20 14
195 207 202 188 182 169 166 167 169 170 168 169 180 188 186 175 183 188 188 189 212 212 243 268 146 24 54 56 46 52 54 52 70 56 48 46 36 35 33 32 31 20 10
161 170 180 180 169 172 168 165 164 165 164 168 166 172 171 179 192 185 189 208 211 216 228 249 84 65 61 41 64 44 46 31 47 52 49 29 30 36 35 27 22 15 7
126 127 128 154 164 165 178 160 159 159 161 158 157 170 172 180 178 144 138 141 101 76 44 46 101 62 81 52 27 37 40 28 35 40 43 29 17 29 25 15 7 2 353
140 140 132 125 129 143 152 151 140 133 113 93 85 86 100 114 133 134 121 117 115 103 90 105 78 82 62 45 69 45 1 16 34 26 17 23 6 16 12 3 357 349 341
145 143 137 131 129 126 118 129 118 112 108 97 86 84 78 86 80 77 102 96 108 102 96 84 75 75 48 32 21 18 4 339 86 33 1 357 0 6 359 348 340 340 335
139 127 101 97 82 70 115 112 117 114 110 113 110 99 94 88 86 86 82 72 68 104 95 97 90 83 45 56 36 28 13 15 347 37 354 326 25 356 347 338 333 332 330
94 83 76 86 76 63 111 110 111 110 113 114 115 112 102 94 91 91 83 78 70 68 67 89 91 80 68 27 43 40 26 4 303 349 353 320 13 341 337 320 325 325 339
89 93 86 80 80 58 100 106 100 98 94 93 95 99 100 95 88 94 86 77 73 68 67 73 78 83 80 52 39 54 27 326 298 88 21 316 331 330 313 300 315 328 329
89 83 81 87 89 80 89 104 106 100 95 90 89 90 94 95 97 97 94 94 87 75 74 77 78 72 68 57 48 43 34 23 353 341 32 341 336 320 310 303 320 325 321
100 95 87 79 89 90 92 101 106 111 105 100 92 86 86 90 90 89 89 91 87 86 84 76 65 60 47 46 41 43 28 30 10 327 15 342 339 349 318 288 327 298 303